Location: ???? ?????????
(44.3677°N, 135.2344°E)
Time: 04:02:09
(UTC+00:00)

MOZ.5/SAFIR/RUBIN 5/SL-8 - Pass Details

Date: 19 May 2025
Orbit: 667 x 695 km, 98.3° (Epoch: 15 June)

Event Time Altitude Azimuth Distance (km) Brightness Sun altitude
Exits shadow 17:25:09 32° 213° (SSW) 1,165 4.4 -17.2°
Maximum altitude 17:26:45 44° 261° (W) 939 4.1 -17.0°
Drops below altitude 10° 17:31:12 10° 334° (NNW) 2,124 6.6 -16.5°
Sets 17:33:32 0° 341° (NNW) 3,039 7.6 -16.3°
